Regional Weather Roundup
Issued by NWS

Home | Current Version | Previous Version | Text Only | Print | Product List | Glossary Off
Versions: 1 2 3 4 5 6 7 8 9 10 11 12 13 14 15 16 17 18 19 20 21 22 23 24 25 26 27 28

000
ASUS45 KBOI 231310
RWRID
WEATHER ROUNDUP FOR IDAHO
NATIONAL WEATHER SERVICE BOISE ID
700 AM MDT WED APR 23 2014

NOTE: "FAIR" INDICATES FEW OR NO CLOUDS BELOW 12000 FEET
WITH NO SIGNIFICANT WEATHER AND/OR OBSTRUCTIONS TO VISIBILITY

IDZ012-014-231400-
SOUTHWEST IDAHO


CITY           SKY/WX    TMP DP  RH WIND       PRES   REMARKS
BOISE          PTCLDY    33  29  85 E5        29.99R WCI  29
CALDWELL       CLEAR     30  21  69 E6        30.01S WCI  24
MOUNTAIN HOME  CLEAR     29  29  99 NW3       29.99R
$$

IDZ016-017-231400-
SOUTHCENTRAL IDAHO


CITY           SKY/WX    TMP DP  RH WIND       PRES   REMARKS
BURLEY         CLEAR     33  26  75 SW14G23   29.95R WCI  23
JEROME         CLEAR     31  26  82 SW9       29.96R WCI  23
TWIN FALLS     CLEAR     33  25  72 S14       29.97R WCI  23
$$

IDZ019>023-231400-
SOUTHEAST IDAHO


CITY           SKY/WX    TMP DP  RH WIND       PRES   REMARKS
IDAHO FALLS    LGT SNOW  33  29  85 SW18G26   29.87R FOG     WCI  22
POCATELLO      PTCLDY    34  26  72 SW22      29.92R WCI  22
REXBURG        FLURRIES  32  29  88 SW14      29.85R WCI  22
$$

IDZ006-010-011-018-031-032-231400-
CENTRAL IDAHO MOUNTAINS


CITY           SKY/WX    TMP DP  RH WIND       PRES   REMARKS
MCCALL         CLEAR     22  18  85 CALM      29.90R
HAILEY         PTCLDY    32  12  43 NW6       29.88R WCI  26
STANLEY          N/A     16  13  88 S5        29.90R WCI   9
SALMON         MOCLDY    34  21  60 SW6       29.88R WCI  29
CHALLIS        PTCLDY    30  16  56 SW6       29.89R WCI  24
$$

IDZ002-004-006-007-026-231400-
NORTHERN IDAHO


CITY           SKY/WX    TMP DP  RH WIND       PRES   REMARKS
LEWISTON       CLOUDY    42  29  59 CALM      29.89S
LOWELL         NOT AVBL
COEUR D`ALENE  CLOUDY    36  32  87 W5        29.86S WCI  32
MULLAN PASS    CLOUDY    24  22  91 VRB7      29.76R WCI  16
$$



USA.gov is the U.S. government's official web portal to all federal, state and local government web resources and services.